Probability
0 0 0 0 0 0 0 0 0 0 0 0 0 0 0 0 0 0 0 0 0 0 0 0 0 0 0 0 0 0 0 0 0 0 0 0 0 0 0 0 0 0 0 0
0 0 0 0 0 0 0 0 0 0 0 0 0 0 0 0 0 0 0 0 0 0 0 0 0 0 0 0 0 0 0 0 0 0 0 0 0 0 0 0 0 0 0 0
0 0 0 0 0 0 0 0 0 0 0 0 0 0 0 0 0 0 0 0 0 0 0 0 0 0 0 0 0 0 0 0 0 0 0 0 0 0 0 0 0 0 0 0
0 0 0 0 0 0 0 0 0 0 0 0 0 0 0 0 0 0 0 0 0 0 0 0 0 0 0 0 0 0 0 0 0 0 0 0 0 0 0 0 0 0 0 0
0 0 0 0 0 0 0 0 0 0 0 0 0 0 0 0 0 0 0 0 0 0 0 0 0 0 0 0 0 0 0 0 0 0 0 0 0 0 0 0 0 0 0 0
0 0 0 0 0 0 0 0 0 0 0 0 0 0 0 0 0 0 0 0 0 0 0 0 0 0 0 0 0 0 0 0 0 0 0 0 0 0 0 0 0 0 0 0
0 0 0 0 0 0 0 0 0 0 0 0 0 0 0 0 0 0 0 0 0 0 0 0 0 0 0 0 0 0 0 0 0 0 0 0 0 0 0 0 0 0 0 0
0 0 0 0 0 0 0 0 0 0 0 0 0 0 0 0 0 0 0 0 0 0 0 0 0 0 0 0 0 0 0 0 0 0 0 0 0 0 0 0 0 0 0 0
0 0 0 0 0 0 0 0 0 0 0 0 0 0 0 0 0 0 0 0 0 0 0 0 0 0 0 0 0 0 0 0 0 0 0 0 0 0 0 0 0 0 0 0
0 0 0 0 0 0 0 0 0 0 0 0 0 0 0 0 0 0 0 0 0 0 0 0 0 0 0 0 0 0 0 0 0 0 0 0 0 0 0 0 0 0 0 0
0 0 0 0 0 0 0 0 0 0 0 0 0 0 0 0 0 0 0 0 0 0 0 0 0 0 0 0 0 0 0 0 0 0 0 0 0 0 0 0 0 0 0 0
0 0 0 0 0 0 0 0 0 0 0 0 0 0 0 0 0 0 0 0 0 0 0 0 0 0 0 0 0 0 0 0 0 0 0 0 0 0 0 0 0 0 0 0
0 0 0 0 0 0 0 0 0 0 0 0 0 0 0 0 0 0 0 0 0 0 0 0 0 0 0 0 0 0 0 0 0 0 0 0 0 0 0 0 0 0 0 0
0 0 0 0 0 0 0 0 0 0 0 0 0 0 0 0 0 0 0 0 0 0 0 0 0 0 0 0 0 0 0 0 0 0 0 0 0 0 0 0 0 0 0 0
0 0 0 0 0 0 0 0 0 0 0 0 0 0 0 0 0 0 0 0 0 0 0 0 0 0 0 0 0 0 0 0 0 0 0 0 0 0 0 0 0 0 0 0
0 0 0 0 0 0 0 0 0 0 0 0 0 0 0 0 0 0 0 0 0 0 0 0 0 0 0 0 0 0 0 0 0 0 0 0 0 0 0 0 0 0 0 0
0 0 0 0 0 0 0 0 0 0 0 0 0 0 0 0 0 0 0 0 0 0 0 0 0 0 0 0 0 0 0 0 0 0 0 0 0 0 0 0 0 0 0 0
0 0 0 0 0 0 0 0 0 0 0 0 0 0 0 0 0 0 0 0 0 0 0 0 0 0 0 0 0 0 0 0 0 0 0 0 0 0 0 0 0 0 0 0
0 0 0 0 0 0 0 0 0 0 0 0 0 0 0 0 0 0 0 0 0 0 0 0 0 0 0 0 0 0 0 0 0 0 0 0 0 0 0 0 0 0 0 0
0 0 0 0 0 0 0 0 0 0 0 0 0 0 0 0 0 0 0 0 0 0 0 0 0 0 0 0 0 0 0 0 0 0 0 0 0 0 0 0 0 0 0 0
0 0 0 0 0 0 0 0 0 0 0 0 0 0 0 0 0 0 0 0 0 0 0 0 0 0 0 0 0 0 0 0 0 0 0 0 0 0 0 0 0 0 0 0
0 0 0 0 0 0 0 0 0 0 0 0 0 0 0 0 0 0 0 0 0 0 0 0 0 0 0 0 0 0 0 0 0 0 0 0 0 0 0 0 0 0 0 0
0 0 0 0 0 0 0 0 0 0 0 0 0 0 0 0 0 0 0 0 0 0 0 0 0 0 0 0 0 0 0 0 0 0 0 0 0 0 0 0 0 0 0 0
0 0 0 0 0 0 0 0 0 0 0 0 0 0 0 0 0 0 0 0 0 0 0 0 0 0 0 0 0 0 0 0 0 0 0 0 0 0 0 0 0 0 0 0
0 0 0 0 0 0 0 0 0 0 0 0 0 0 0 0 0 0 0 0 0 0 0 0 0 0 0 0 0 0 0 0 0 0 0 0 0 0 0 0 0 0 0 0
0 0 0 0 0 0 0 0 0 0 0 0 0 0 0 0 0 0 0 0 0 0 0 0 0 0 0 0 0 0 0 0 0 0 0 0 0 0 0 0 0 0 0 0
0 0 0 0 0 0 0 0 0 0 0 0 0 0 0 0 0 0 0 0 0 0 0 0 0 0 0 0 0 0 0 0 0 0 0 0 0 0 0 0 0 0 0 0
Height
5633 5630 5626 5622 5619 5614 5609 5604 5599 5596 5592 5589 5583 5578 5574 5569 5564 5560 5555 5550 5545 5540 5536 5532 5528 5525 5522 5520 5519 5518 5518 5519 5520 5521 5522 5524 5527 5529 5533 5537 5541 5545 5550 5555
5626 5623 5619 5616 5613 5608 5603 5598 5593 5588 5586 5582 5576 5572 5567 5562 5558 5553 5549 5544 5539 5534 5530 5526 5523 5520 5517 5515 5514 5513 5513 5513 5513 5514 5516 5518 5521 5523 5526 5530 5534 5537 5542 5547
5617 5614 5610 5609 5607 5602 5597 5592 5587 5582 5579 5575 5570 5565 5560 5555 5551 5547 5542 5537 5533 5528 5524 5520 5517 5514 5512 5510 5509 5508 5508 5507 5507 5508 5509 5512 5514 5516 5519 5523 5527 5531 5535 5540
5606 5605 5602 5604 5598 5594 5589 5585 5580 5575 5571 5567 5563 5558 5554 5548 5544 5539 5535 5531 5526 5522 5518 5515 5512 5509 5507 5505 5504 5503 5502 5502 5502 5502 5503 5505 5507 5510 5513 5517 5520 5523 5528 5533
5596 5593 5592 5594 5589 5584 5580 5578 5573 5568 5564 5560 5555 5552 5548 5542 5537 5532 5528 5523 5519 5515 5512 5509 5506 5503 5501 5500 5498 5497 5497 5497 5497 5497 5498 5500 5502 5504 5507 5510 5513 5516 5521 5526
5587 5583 5582 5585 5580 5575 5571 5569 5566 5560 5556 5552 5547 5544 5542 5535 5530 5525 5520 5516 5512 5508 5505 5502 5499 5497 5495 5494 5492 5491 5491 5491 5491 5492 5493 5494 5496 5498 5501 5503 5506 5510 5514 5519
5578 5573 5573 5575 5570 5566 5563 5561 5556 5552 5548 5544 5539 5535 5531 5527 5522 5517 5513 5509 5505 5501 5498 5495 5493 5491 5489 5488 5487 5486 5485 5485 5486 5486 5487 5489 5491 5492 5495 5497 5500 5503 5507 5512
5569 5565 5567 5564 5559 5556 5553 5550 5546 5542 5539 5535 5531 5527 5522 5518 5513 5509 5505 5501 5498 5494 5491 5488 5486 5484 5483 5481 5480 5480 5479 5479 5480 5481 5481 5483 5484 5486 5488 5491 5494 5497 5500 5505
5560 5560 5557 5553 5550 5546 5543 5540 5537 5533 5530 5526 5522 5518 5514 5509 5505 5501 5497 5493 5490 5486 5483 5481 5478 5477 5476 5475 5474 5473 5473 5473 5473 5474 5475 5476 5478 5480 5482 5484 5487 5490 5494 5498
5550 5550 5547 5543 5539 5536 5533 5530 5527 5523 5520 5516 5512 5508 5504 5500 5496 5492 5489 5485 5481 5478 5475 5473 5471 5469 5468 5467 5467 5467 5467 5467 5467 5468 5469 5470 5471 5473 5475 5477 5480 5483 5486 5490
5539 5539 5535 5534 5530 5526 5523 5520 5517 5513 5510 5506 5502 5499 5495 5491 5487 5483 5479 5476 5472 5469 5467 5465 5463 5461 5460 5460 5459 5459 5459 5460 5460 5461 5462 5464 5465 5466 5468 5470 5472 5475 5478 5482
5528 5527 5524 5523 5520 5516 5513 5510 5506 5503 5500 5496 5491 5488 5484 5481 5477 5473 5470 5467 5463 5461 5458 5456 5455 5453 5452 5452 5452 5452 5452 5452 5453 5454 5455 5456 5458 5459 5461 5463 5465 5467 5470 5474
5516 5514 5511 5510 5508 5505 5502 5499 5496 5492 5489 5485 5481 5477 5474 5470 5467 5463 5460 5457 5454 5451 5449 5448 5446 5445 5444 5444 5443 5443 5444 5444 5445 5446 5447 5448 5450 5452 5454 5456 5457 5459 5462 5466
5503 5501 5500 5499 5497 5494 5490 5488 5484 5481 5478 5474 5471 5467 5463 5460 5457 5453 5450 5447 5445 5442 5440 5439 5438 5437 5436 5436 5435 5435 5435 5436 5437 5437 5439 5440 5442 5443 5445 5448 5450 5452 5455 5458
5492 5490 5489 5487 5485 5482 5479 5476 5473 5470 5467 5463 5460 5456 5453 5450 5447 5444 5441 5438 5436 5434 5432 5430 5429 5429 5428 5427 5427 5427 5427 5427 5428 5429 5431 5432 5434 5436 5438 5440 5443 5446 5448 5451
5480 5478 5476 5475 5473 5470 5468 5465 5462 5459 5456 5452 5449 5446 5442 5439 5437 5434 5431 5429 5427 5425 5423 5421 5420 5419 5419 5419 5418 5418 5418 5419 5420 5421 5422 5424 5426 5428 5430 5433 5436 5438 5441 5444
5468 5467 5465 5463 5461 5459 5456 5453 5450 5447 5444 5441 5438 5435 5432 5429 5427 5424 5422 5420 5417 5416 5414 5412 5411 5410 5409 5409 5409 5410 5410 5410 5411 5412 5414 5416 5418 5420 5423 5425 5428 5431 5434 5437
5456 5455 5454 5452 5450 5447 5445 5442 5438 5436 5433 5430 5427 5425 5422 5419 5417 5415 5413 5410 5408 5407 5405 5403 5402 5401 5401 5400 5400 5400 5401 5401 5402 5404 5405 5407 5410 5412 5415 5418 5420 5423 5426 5429
5444 5443 5442 5440 5438 5436 5433 5430 5427 5425 5422 5419 5417 5414 5412 5409 5407 5405 5403 5401 5399 5397 5396 5394 5393 5392 5391 5391 5391 5391 5392 5393 5394 5395 5397 5399 5401 5404 5407 5409 5412 5415 5419 5422
5433 5432 5430 5428 5426 5424 5421 5419 5416 5414 5411 5409 5406 5404 5402 5399 5397 5395 5393 5391 5389 5387 5386 5384 5383 5382 5382 5382 5382 5382 5383 5384 5385 5386 5388 5390 5393 5396 5399 5402 5404 5408 5411 5415
5422 5420 5419 5417 5415 5412 5410 5408 5405 5403 5401 5398 5396 5394 5392 5389 5387 5385 5383 5381 5379 5377 5376 5374 5373 5373 5373 5373 5373 5373 5374 5375 5376 5377 5379 5382 5385 5388 5391 5394 5397 5401 5404 5408
5410 5409 5407 5406 5404 5402 5399 5397 5395 5393 5391 5388 5386 5383 5381 5379 5377 5375 5372 5371 5369 5367 5365 5364 5363 5363 5363 5363 5364 5364 5365 5366 5367 5369 5371 5374 5377 5380 5383 5387 5390 5394 5398 5401
5399 5398 5396 5395 5393 5391 5389 5386 5384 5382 5380 5378 5375 5373 5371 5369 5367 5365 5363 5361 5358 5357 5355 5354 5353 5353 5353 5354 5355 5355 5356 5357 5359 5361 5364 5367 5370 5373 5376 5380 5384 5388 5391 5395
5388 5387 5385 5384 5382 5380 5378 5376 5374 5372 5370 5367 5365 5363 5361 5359 5357 5355 5353 5351 5349 5347 5346 5345 5344 5344 5344 5345 5346 5347 5348 5349 5352 5354 5357 5360 5363 5366 5370 5374 5377 5381 5385 5389
5377 5376 5375 5373 5371 5370 5368 5366 5364 5362 5360 5358 5356 5353 5351 5350 5348 5346 5344 5342 5340 5339 5338 5337 5336 5336 5337 5338 5339 5340 5341 5343 5345 5348 5350 5354 5357 5360 5364 5368 5372 5376 5380 5383
5367 5365 5364 5363 5361 5359 5358 5356 5354 5352 5350 5349 5347 5344 5342 5340 5339 5337 5336 5334 5333 5331 5331 5330 5330 5330 5331 5332 5333 5334 5335 5337 5340 5342 5345 5348 5352 5356 5360 5363 5367 5371 5375 5379
5356 5355 5354 5353 5351 5350 5348 5347 5345 5343 5341 5339 5338 5335 5333 5332 5331 5330 5328 5327 5326 5325 5325 5325 5325 5325 5326 5326 5327 5329 5331 5333 5335 5338 5341 5344 5348 5352 5355 5359 5363 5367 5371 5375
Wind_Speed
33 33 34 34 34 34 34 35 35 35 34 34 35 35 34 34 34 33 33 33 32 31 29 28 28 26 25 26 26 26 26 27 28 29 30 32 33 32 33 34 35 36 38 39
34 34 35 35 34 34 35 35 35 35 34 34 36 37 36 35 35 34 34 34 32 31 31 29 27 26 25 25 25 25 25 26 26 27 29 30 31 31 32 33 34 35 36 38
36 35 36 36 34 34 34 34 35 35 35 35 36 37 37 37 36 35 35 34 34 33 31 29 27 26 25 25 26 26 26 26 26 27 28 29 30 29 30 31 32 35 39 37
38 37 38 36 35 35 35 35 35 36 36 36 37 38 38 38 37 37 36 35 35 33 31 29 27 26 26 25 25 25 25 24 25 26 27 28 28 29 30 30 31 34 37 36
38 39 39 36 37 37 37 36 36 36 36 37 38 38 38 38 38 37 37 36 35 32 31 30 28 27 26 26 25 25 25 24 24 25 26 26 26 27 28 29 30 32 35 36
39 40 40 38 38 38 39 38 37 37 38 39 40 39 38 38 38 37 37 36 34 32 31 29 28 28 27 26 25 25 25 24 24 24 24 24 25 25 26 27 28 30 33 35
39 40 40 39 39 39 39 39 39 39 40 40 41 41 40 39 38 38 37 36 34 32 31 30 29 28 28 26 26 25 25 24 23 23 23 24 24 24 25 26 27 28 30 33
39 40 39 39 40 40 40 40 40 40 41 41 41 41 41 40 39 38 37 36 34 32 31 30 29 29 27 26 25 25 24 23 23 23 23 24 24 24 25 25 26 28 29 31
40 40 40 40 40 41 41 41 41 41 41 41 41 40 40 40 39 38 37 35 34 33 31 30 29 28 27 26 25 25 24 22 22 23 23 23 24 24 24 25 25 27 29 31
41 40 41 41 42 42 42 43 42 42 42 41 41 41 40 40 38 37 36 35 34 33 31 30 29 28 27 25 25 25 25 24 24 23 23 23 24 25 25 25 25 26 27 29
41 41 42 42 42 43 43 44 44 43 42 42 41 41 40 39 38 37 36 34 33 32 31 29 28 28 27 27 26 26 26 25 25 24 24 24 25 26 26 27 27 26 27 28
42 42 43 43 43 43 44 44 44 44 43 42 41 41 40 38 38 37 36 35 34 32 30 28 27 27 27 27 27 27 26 25 25 25 25 25 25 26 26 27 27 27 27 27
42 42 44 44 43 44 44 44 44 43 42 41 41 41 40 38 37 36 35 34 33 31 29 28 27 26 26 26 27 27 26 25 25 26 26 26 26 26 26 25 26 26 27 27
43 44 44 44 44 44 45 44 44 43 42 41 41 40 39 38 37 35 34 32 31 30 29 28 27 27 26 26 26 26 26 26 26 26 26 26 26 26 26 25 25 25 26 27
43 44 44 44 44 44 44 44 43 43 42 41 40 39 38 37 36 34 32 31 30 30 28 27 27 27 27 26 26 26 27 27 26 26 26 25 25 25 25 24 24 24 26 27
42 42 43 43 43 43 43 43 43 42 41 40 39 38 37 36 35 33 31 30 30 29 28 28 27 28 28 27 27 27 27 27 27 27 26 26 26 25 25 24 24 24 25 27
41 41 41 42 42 42 42 42 42 41 40 39 38 37 36 35 33 31 31 30 29 29 28 28 28 28 28 28 27 27 27 27 28 27 27 26 26 26 25 25 24 24 25 26
40 40 40 41 41 41 41 42 41 40 39 38 36 35 34 34 33 32 31 30 29 28 28 28 28 28 28 28 27 27 27 27 27 27 27 27 26 26 26 25 25 25 25 25
40 40 40 41 41 41 41 40 39 38 38 36 35 34 34 33 32 32 31 30 29 29 29 29 29 28 27 27 27 27 27 27 26 27 27 27 26 26 26 25 24 24 25 25
40 40 40 40 40 40 40 39 38 37 36 35 34 34 33 33 32 31 31 31 30 30 30 29 28 28 27 27 27 27 27 26 26 27 27 27 27 26 26 25 24 23 24 24
38 39 39 39 39 39 38 37 36 34 34 34 33 33 33 32 32 32 31 31 31 32 31 29 29 28 27 27 27 27 26 26 25 25 26 26 26 25 25 25 24 23 23 23
37 37 37 37 37 36 36 35 35 34 34 33 33 33 33 32 32 32 31 31 31 31 30 29 28 27 27 27 25 25 25 25 24 24 24 25 25 24 24 24 24 23 22 22
37 37 37 36 36 35 35 35 34 34 33 33 32 32 31 31 31 30 30 30 30 29 28 27 27 26 26 25 24 23 23 23 23 23 24 24 24 24 23 23 23 22 22 22
37 37 36 36 35 34 34 33 33 33 33 33 32 31 30 30 30 29 28 27 27 26 25 25 24 24 23 23 22 21 21 22 22 22 22 23 23 23 23 22 22 21 21 21
36 35 35 34 34 33 32 32 32 32 32 31 31 30 30 29 28 27 26 25 24 23 22 21 21 20 20 20 19 19 19 20 20 19 20 20 21 21 21 21 20 21 20 21
34 34 33 32 32 31 30 30 30 30 29 29 29 29 28 27 26 24 23 22 21 20 19 18 18 18 18 18 17 17 17 17 17 18 18 19 19 19 20 19 19 19 19 19
33 32 31 31 30 29 29 28 28 28 28 27 27 26 25 24 22 21 21 20 19 18 17 17 17 17 16 16 16 16 16 17 17 17 17 18 19 19 19 18 18 18 19 19
Wind_Direction
302 305 307 308 310 311 312 314 313 315 315 317 315 315 315 315 314 313 312 312 310 308 307 304 298 292 286 278 272 267 265 263 257 255 251 246 244 243 241 240 239 239 236 233
299 302 304 305 308 309 310 312 312 312 315 315 314 314 314 314 313 312 311 310 307 305 305 302 297 291 285 278 273 270 269 267 261 257 252 248 246 246 245 244 243 241 236 233
296 298 300 303 307 307 308 310 311 312 314 314 314 314 314 313 312 312 310 308 306 305 303 300 297 292 287 279 274 272 270 266 260 259 256 249 248 247 245 244 244 241 237 235
295 297 298 303 304 305 307 308 309 310 311 312 314 315 314 312 311 310 310 308 305 303 300 298 293 290 287 284 279 273 269 266 262 260 258 253 248 248 248 247 246 241 237 236
294 295 297 301 303 304 305 306 307 307 308 310 312 313 312 310 310 310 310 309 306 302 299 295 291 289 286 284 280 274 270 268 265 261 257 253 250 248 245 246 245 241 236 235
293 294 297 301 302 303 303 304 305 305 306 308 310 310 310 309 309 307 307 308 306 301 297 293 288 285 286 284 280 273 269 267 264 260 256 252 250 249 247 247 246 242 238 236
291 293 296 301 301 302 302 304 304 305 306 307 308 309 309 308 306 305 305 304 303 299 294 292 287 284 283 280 279 272 268 265 263 260 258 254 251 249 247 247 246 244 240 236
289 291 297 298 299 300 301 302 303 305 306 306 306 306 305 305 304 303 302 301 301 299 294 290 287 285 282 279 277 273 269 265 263 261 257 252 251 248 247 247 246 243 238 237
286 290 294 295 296 298 300 301 302 304 305 304 304 304 303 302 302 301 300 299 298 297 293 288 285 283 279 275 275 274 271 268 263 260 257 253 251 248 248 247 246 245 241 239
285 289 291 293 295 297 298 299 301 302 303 303 302 302 301 300 300 299 298 298 297 294 291 286 283 282 278 274 273 272 269 267 263 258 254 254 254 252 251 250 250 248 244 240
285 287 289 291 294 295 296 298 299 300 301 301 300 300 300 299 298 298 297 296 295 293 289 284 282 280 276 273 272 272 269 266 262 260 256 254 254 254 253 252 250 248 245 242
284 286 288 290 292 293 295 296 297 298 298 299 299 299 299 298 297 296 296 294 292 291 288 283 280 278 275 273 272 272 268 264 261 261 257 254 254 256 255 254 252 249 246 241
282 284 286 289 290 292 294 295 296 297 297 297 298 298 298 297 296 295 294 293 291 288 286 281 278 277 275 274 271 269 266 262 259 258 257 255 253 253 251 250 249 247 244 241
281 284 286 288 290 291 292 294 295 295 295 295 296 297 296 295 294 294 293 291 289 287 283 279 276 275 275 274 272 269 266 262 260 257 256 255 253 252 251 248 246 245 243 241
281 284 286 287 289 290 291 293 294 294 294 294 295 295 295 293 293 292 291 289 288 286 282 278 276 275 274 273 272 269 266 262 259 257 256 254 251 251 250 249 247 245 240 239
283 285 286 287 288 289 291 292 293 294 294 293 293 293 293 291 291 290 288 288 288 286 282 277 276 275 274 272 271 269 267 262 259 257 256 253 250 249 249 249 248 246 242 239
283 284 285 286 288 289 291 292 292 292 292 292 291 291 291 290 288 288 287 287 287 286 282 277 276 276 274 271 269 269 267 263 259 257 255 252 248 247 246 246 246 245 242 239
282 283 285 287 289 290 291 291 291 291 291 290 290 290 290 289 287 287 286 286 285 285 282 278 276 275 273 270 267 267 266 263 259 255 252 250 248 246 245 245 245 244 242 240
281 283 284 287 288 289 291 291 289 289 289 289 290 289 289 289 287 286 285 285 284 284 282 278 275 274 272 269 267 267 267 264 259 254 251 249 247 245 244 244 244 242 239 237
281 284 285 287 288 289 290 289 288 288 288 289 290 289 288 288 286 285 284 284 283 283 282 278 275 272 271 270 268 266 265 263 258 255 251 248 245 242 242 241 241 240 238 235
281 284 285 286 288 288 288 288 287 287 289 289 289 288 288 286 285 285 284 282 281 282 281 278 274 270 269 269 267 265 263 260 256 254 250 246 242 240 240 239 238 236 235 234
281 283 285 286 287 287 288 288 287 287 288 289 288 288 287 286 285 286 285 283 281 281 279 276 272 269 267 266 266 264 260 256 254 251 247 243 240 238 237 237 235 234 234 233
281 283 284 286 286 287 287 287 287 287 287 288 288 287 287 286 286 286 285 283 281 281 278 274 270 268 266 265 264 262 258 254 250 246 243 240 237 235 234 234 232 230 229 229
281 283 284 285 286 286 286 286 286 286 287 288 288 287 287 286 286 287 286 282 280 279 277 273 268 265 263 262 261 259 256 251 246 242 239 236 233 232 231 230 228 226 224 223
282 282 283 284 284 284 284 285 285 286 287 287 287 287 286 285 285 285 283 282 279 278 275 270 266 261 258 257 257 256 252 247 241 237 233 231 230 227 225 223 221 221 220 218
281 282 283 283 283 283 283 284 286 286 286 286 287 286 284 283 283 282 280 279 279 276 271 265 261 257 254 253 252 248 244 239 234 230 226 224 221 219 217 214 213 214 214 213
280 281 281 282 283 282 283 285 286 286 287 287 287 286 283 281 279 279 278 277 275 272 266 262 258 255 252 250 245 239 235 232 228 224 220 216 214 213 212 210 209 208 206 206